Date String (YYYY-MM-DD hh:mm:ss) UTC,Instrument flags,Ambient pressure (hPa),Sample flow (lpm),Bypass flow (lpm),Sample temperature (°C),Ambient temperature (°C),ASC tube jacket temperature (°C),LED temperature (°C),Box temperature (°C),Sample RH (%),Span deviation,Mass concentration (μg/m³),Mass concentration (μg/m³),Mass concentration (μg/m³)
DateTimeUTC,F1_M11,P_M11,Q1_M11,Q2_M11,T1_M11,T2_M11,T3_M11,T4_M11,T5_M11,U1_M11,ZSPAN_M11,X0_M11,X2_M11,X1_M11
2022-05-31 14:00:00,,0825.9,4.99,0.00,24.7,23.8,00.0,33.5,26.7,17.8,0000.0,0003.81,0001.65,0000.88
2022-05-31 14:01:00,,0825.9,4.99,0.00,24.7,23.9,00.0,33.6,26.7,17.9,0000.0,0003.90,0001.68,0000.87
2022-05-31 14:02:00,,0825.9,5.00,0.00,24.7,23.9,00.0,33.6,26.7,17.6,0000.0,0003.87,0001.73,0000.88
2022-05-31 14:03:00,,0825.9,5.01,0.00,24.7,23.9,00.0,33.6,26.7,17.8,0000.0,0003.76,0001.72,0000.88
2022-05-31 14:04:00,,0825.9,4.99,0.00,24.7,23.9,00.0,33.6,26.7,18.2,0000.0,0003.86,0001.71,0000.89
2022-05-31 14:05:00,,0825.9,5.00,0.00,24.7,23.9,00.0,33.6,26.7,17.8,0000.0,0003.78,0001.69,0000.90
2022-05-31 14:06:00,,0825.9,5.01,0.00,24.7,23.9,00.0,33.6,26.7,17.7,0000.0,0003.77,0001.70,0000.90
2022-05-31 14:07:00,,0825.9,4.99,0.00,24.8,23.9,00.0,33.6,26.7,17.8,0000.0,0003.91,0001.74,0000.92
2022-05-31 14:08:00,,0825.9,5.01,0.00,24.8,23.9,00.0,33.6,26.7,18.0,0000.0,0003.93,0001.77,0000.93
2022-05-31 14:09:00,,0825.9,4.99,0.00,24.8,23.9,00.0,33.6,26.8,18.0,0000.0,0003.79,0001.76,0000.95
2022-05-31 14:10:00,,0825.9,5.01,0.00,24.8,23.9,00.0,33.6,26.8,18.2,0000.0,0003.71,0001.75,0000.97
2022-05-31 14:11:00,,0825.9,5.01,0.00,24.8,23.9,00.0,33.6,26.8,18.4,0000.0,0003.65,0001.73,0000.99
2022-05-31 14:12:00,,0825.9,4.99,0.00,24.8,23.9,00.0,33.7,26.8,18.3,0000.0,0003.62,0001.73,0000.99
2022-05-31 14:13:00,,0825.9,5.00,0.00,24.8,23.9,00.0,33.7,26.8,18.4,0000.0,0003.45,0001.71,0001.00
2022-05-31 14:14:00,,0825.9,5.02,0.00,24.8,23.9,00.0,33.7,26.8,18.7,0000.0,0003.44,0001.71,0001.01
2022-05-31 14:15:00,,0825.9,4.99,0.00,24.8,24.0,00.0,33.7,26.8,18.2,0000.0,0004.06,0001.75,0001.00
2022-05-31 14:16:00,,0825.8,4.99,0.00,24.8,24.0,00.0,33.7,26.8,18.2,0000.0,0004.20,0001.75,0000.99
2022-05-31 14:17:00,,0825.8,5.02,0.00,24.8,24.0,00.0,33.7,26.8,18.9,0000.0,0004.10,0001.73,0000.99
2022-05-31 14:18:00,,0825.9,4.99,0.00,24.9,24.0,00.0,33.7,26.8,18.4,0000.0,0004.45,0001.70,0000.98
2022-05-31 14:19:00,,0825.8,5.01,0.00,24.9,24.0,00.0,33.7,26.8,18.3,0000.0,0005.27,0001.69,0000.98
2022-05-31 14:20:00,,0825.9,5.00,0.00,24.9,24.0,00.0,33.7,26.9,18.5,0000.0,0005.63,0001.72,0000.98
2022-05-31 14:21:00,,0825.9,4.99,0.00,24.9,24.0,00.0,33.7,26.9,17.8,0000.0,0006.00,0001.79,0000.99
2022-05-31 14:22:00,,0825.9,5.01,0.00,24.9,24.0,00.0,33.7,26.9,18.5,0000.0,0006.34,0001.82,0001.00
2022-05-31 14:23:00,,0826.0,4.99,0.00,24.9,24.0,00.0,33.7,26.9,18.6,0000.0,0006.83,0001.83,0001.01
2022-05-31 14:24:00,,0826.0,5.01,0.00,24.9,24.0,00.0,33.8,26.9,18.2,0000.0,0007.75,0001.84,0001.02
2022-05-31 14:25:00,,0825.9,5.00,0.00,24.9,24.0,00.0,33.8,26.9,18.8,0000.0,0008.01,0001.90,0001.02
2022-05-31 14:26:00,,0825.8,4.99,0.00,24.9,24.0,00.0,33.8,26.9,19.7,0000.0,0007.71,0001.87,0001.03
2022-05-31 14:27:00,,0825.9,5.01,0.00,24.9,24.0,00.0,33.8,26.9,19.8,0000.0,0007.71,0001.86,0001.04
2022-05-31 14:28:00,,0825.9,4.99,0.00,24.9,24.0,00.0,33.8,26.9,19.5,0000.0,0008.37,0001.90,0001.06
2022-05-31 14:29:00,,0825.8,5.02,0.00,24.9,24.0,00.0,33.8,26.9,20.0,0000.0,0009.06,0001.97,0001.08
2022-05-31 14:30:00,,0825.9,4.99,0.00,24.9,24.0,00.0,33.8,26.9,19.3,0000.0,0008.70,0001.98,0001.08
2022-05-31 14:31:00,,0825.9,5.01,0.00,25.0,24.0,00.0,33.8,26.9,19.3,0000.0,0008.59,0001.97,0001.08
2022-05-31 14:32:00,,0825.9,4.98,0.00,25.0,24.1,00.0,33.8,26.9,19.9,0000.0,0008.47,0001.94,0001.08
2022-05-31 14:33:00,,0825.8,5.01,0.00,25.0,24.1,00.0,33.8,27.0,19.4,0000.0,0008.27,0001.89,0001.06
2022-05-31 14:34:00,,0825.9,4.99,0.00,25.0,24.1,00.0,33.8,27.0,19.8,0000.0,0008.14,0001.86,0001.08
2022-05-31 14:35:00,,0825.9,5.00,0.00,25.0,24.1,00.0,33.8,27.0,19.5,0000.0,0007.65,0001.86,0001.08
2022-05-31 14:36:00,,0825.9,5.00,0.00,25.0,24.1,00.0,33.8,27.0,19.7,0000.0,0006.92,0001.81,0001.08
2022-05-31 14:37:00,,0825.9,4.99,0.00,25.0,24.1,00.0,33.9,27.0,19.9,0000.0,0007.08,0001.81,0001.09
2022-05-31 14:38:00,,0825.9,5.01,0.00,25.0,24.1,00.0,33.9,27.0,20.3,0000.0,0007.26,0001.83,0001.10
2022-05-31 14:39:00,,0825.9,5.00,0.00,25.0,24.1,00.0,33.9,27.0,20.2,0000.0,0006.84,0001.86,0001.10
2022-05-31 14:40:00,,0825.9,5.00,0.00,25.0,24.1,00.0,33.9,27.0,19.8,0000.0,0004.91,0001.83,0001.09
2022-05-31 14:41:00,,0825.9,5.01,0.00,25.0,24.1,00.0,33.9,27.0,19.4,0000.0,0004.37,0001.75,0001.09
2022-05-31 14:42:00,,0825.9,4.99,0.00,25.0,24.1,00.0,33.9,27.0,19.2,0000.0,0004.26,0001.78,0001.09
2022-05-31 14:43:00,,0825.9,5.00,0.00,25.0,24.1,00.0,33.9,27.0,19.4,0000.0,0004.26,0001.79,0001.11
2022-05-31 14:44:00,,0825.9,5.00,0.00,25.0,24.1,00.0,33.9,27.0,19.5,0000.0,0004.45,0001.86,0001.12
2022-05-31 14:45:00,,0825.9,4.98,0.00,25.0,24.1,00.0,33.9,27.0,20.0,0000.0,0004.59,0001.89,0001.12
2022-05-31 14:46:00,,0825.9,5.02,0.00,25.0,24.1,00.0,33.9,27.0,19.8,0000.0,0004.65,0001.86,0001.12
2022-05-31 14:47:00,,0825.9,4.99,0.00,25.0,24.1,00.0,33.9,27.0,19.3,0000.0,0005.70,0001.91,0001.13
2022-05-31 14:48:00,,0826.0,5.00,0.00,25.0,24.1,00.0,33.9,27.0,19.3,0000.0,0005.42,0001.90,0001.14
2022-05-31 14:49:00,,0826.0,5.01,0.00,25.0,24.1,00.0,33.9,27.0,19.3,0000.0,0005.03,0001.91,0001.15
2022-05-31 14:50:00,,0825.9,4.99,0.00,25.0,24.1,00.0,33.9,27.0,19.3,0000.0,0006.30,0001.88,0001.17
2022-05-31 14:51:00,,0826.0,5.01,0.00,25.1,24.1,00.0,33.9,27.0,19.5,0000.0,0006.59,0001.84,0001.17
2022-05-31 14:52:00,,0825.9,5.00,0.00,25.1,24.1,00.0,33.9,27.0,19.9,0000.0,0006.77,0001.87,0001.17
2022-05-31 14:53:00,,0825.9,5.00,0.00,25.1,24.2,00.0,33.9,27.0,20.3,0000.0,0006.72,0001.84,0001.16
2022-05-31 14:54:00,,0825.8,5.00,0.00,25.1,24.2,00.0,34.0,27.1,20.0,0000.0,0007.15,0001.79,0001.15
2022-05-31 14:55:00,,0825.9,4.99,0.00,25.1,24.2,00.0,34.0,27.1,19.7,0000.0,0007.39,0001.73,0001.15
2022-05-31 14:56:00,,0825.9,5.01,0.00,25.1,24.2,00.0,34.0,27.1,19.9,0000.0,0007.46,0001.71,0001.15
2022-05-31 14:57:00,,0825.9,5.00,0.00,25.1,24.2,00.0,34.0,27.1,20.1,0000.0,0007.11,0001.72,0001.15
2022-05-31 14:58:00,,0826.0,4.99,0.00,25.1,24.2,00.0,34.0,27.1,19.8,0000.0,0006.15,0001.69,0001.15
2022-05-31 14:59:00,,0826.0,5.00,0.00,25.1,24.2,00.0,34.0,27.1,20.0,0000.0,0006.06,0001.65,0001.14
